Location: Unspecified
(0.0000°N, 0.0000°E)
Time: 07:33:12
(UTC+00:00)

ATLAS 5 CENTAUR DEB - Pass Details

Date: 12 December 2025
Orbit: 9604 x 35045 km, 12.6° (Epoch: 17 August)

Event Time Altitude Azimuth Distance (km) Brightness Sun altitude
Rises 18:12:05 0° 262° (W) 15,137 ? -4.2°
Reaches altitude 10° 18:22:37 10° 258° (WSW) 13,682 ? -6.6°
Maximum altitude 03:42:29 56° 63° (ENE) 31,844 ? -30.0°
Drops below altitude 10° 07:00:42 10° 89° (E) 17,192 ? 15.2°
Sets 07:13:20 0° 92° (E) 17,007 ? 18.1°
